www.pogodaiklimat.ru

АРХИВ ПОГОДЫ в Далласе

Время (UTC), дата Ветер
(напр.,м/с)
 
Видим.   Явления Облачность Т
(С)
Тd
(С)
f
(%)
Тe
(С)
Тes
(С)
Комфортность

P
(гПа)

Po
(гПа)
Тmin
(С)
Tmax
(С)
R
(мм)
SD
(см)
06:53 16.06 Ю  16 км    2/0 5400 м
[средняя верхняя] 
+27.8  +21.1  67  +35  +35  очень
душно 
1012.2  993.4         
07:53 16.06 Ю  16 км    8/0 5400 м
[средняя верхняя] 
+27.2  +21.1  69  +34  +34  очень
душно 
1.0  993.4         
08:53 16.06 Ю  16 км    8/0 5400 м
[средняя верхняя] 
+26.7  +21.7  74  +34  +34  очень
душно 
1011.7  993.1         
09:53 16.06 Ю  16 км    2/0 5400 м
[средняя верхняя] 
+26.1  +21.7  77  +34  +34  очень
душно 
1011.0  992.4         
10:53 16.06 Ю  16 км    8/0 5400 м
[средняя верхняя] 
+26.1  +22.2  79  +34  +34  очень
душно 
1011.4  992.8         
11:53 16.06 Ю  16 км    5/0 5400 м
[средняя верхняя] 
+26.7  +22.8  79  +35  +35  очень
душно 
1011.7  993.1  +26.1  +28.9     
12:53 16.06 Ю  16 км    5/0 5400 м
[средняя верхняя] 
+27.8  +22.8  74  +37  +37  очень
душно 
1012.5  993.7         
13:53 16.06 Ю  16 км    5/0 5400 м
[средняя верхняя] 
+28.9  +22.8  70  +38  +39  очень
душно 
1013.5  994.7         
14:53 16.06 ЮЗ  16 км    8/0 6000 м
[средняя верхняя] 
+31.7  +21.7  55  +40  +41  очень
душно 
1013.8  995.1         
15:53 16.06 Ю  16 км    5/0 3000 м
[средняя верхняя] 
+31.7  +21.1  53  +39  +41  очень
душно 
1013.5  994.7         
16:53 16.06 Ю  16 км    5/0 3000 м
[средняя верхняя] 
+33.9  +21.1  47  +41  +44  опасность
перегрева 
1013.4  994.7         
17:53 16.06 Ю  8
{10} 
16 км    5/0 3000 м
[средняя верхняя] 
+35.0  +21.1  44  +42  +43  опасность
перегрева 
1013.0  994.4  +26.7  +35.0     
18:53 16.06 ЮЗ  7
{11} 
16 км    2/0 3000 м
[средняя верхняя] 
+36.1  +20.0  39  +42  +46  опасность
перегрева 
1012.4  993.7         
19:53 16.06 ЮЗ  16 км    2/0 3000 м
[средняя верхняя] 
+36.1  +20.6  41  +43  +45  опасность
перегрева 
1012.0  993.4         
20:53 16.06 Ю  7
{11} 
16 км    2/0 6300 м
[верхняя] 
+36.1  +21.1  42  +43  +46  опасность
перегрева 
1011.3  992.8         
21:53 16.06 Ю  16 км    2/2 1800 м
[верхняя] 
+35.6  +22.2  46  +44  +50  опасность
перегрева 
1010.9  992.1         
22:53 16.06 Ю  16 км    2/0 7500 м
[верхняя] 
+35.0  +21.1  44  +42  +44  опасность
перегрева 
1010.4  991.8         
23:53 16.06 Ю  16 км    2/0 7500 м
[верхняя] 
+34.4  +20.0  43  +40  +42  очень
душно 
1010.2  991.4  +34.4  +36.7     
00:53 17.06 Ю  16 км    2/2 1950 м
[верхняя] 
+33.3  +19.4  44  +39  +39  очень
душно 
1010.4  991.8         
01:53 17.06 Ю  16 км    2/2 1950 м  +32.2  +19.4  47  +38  +38  очень
душно 
1010.6  991.8         
02:53 17.06 Ю  16 км    ясно  +31.1  +20.6  54  +38  +38  очень
душно 
1010.7  992.1         
03:53 17.06 Ю  16 км    ясно  +30.0  +21.7  61  +38  +38  очень
душно 
1011.1  992.4         
04:53 17.06 Ю  16 км    ясно  +29.4  +21.7  63  +37  +37  очень
душно 
1011.1  992.4         
05:53 17.06 Ю  16 км    ясно  +28.9  +22.2  67  +38  +38  очень
душно 
1011.1  992.4  +28.9  +34.4     
06:53 17.06 Ю  16 км    ясно  +28.3  +22.2  70  +37  +37  очень
душно 
1010.7  992.1         
07:53 17.06 Ю  16 км    ясно  +27.8  +21.7  69  +36  +36  очень
душно 
1010.6  991.8         
08:53 17.06 Ю  16 км    ясно  +26.7  +21.7  74  +34  +34  очень
душно 
1010.6  991.8         
09:53 17.06 Ю  16 км    2/0 5400 м
[средняя] 
+25.6  +21.7  79  +33  +33  очень
душно 
1010.6  992.1         
10:53 17.06 штиль  16 км    5/0 5400 м
[средняя] 
+24.4  +21.7  85  +31  +31  очень
душно 
1011.9  993.1         
11:53 17.06 Ю  14 км    5/0 5700 м
[средняя] 
+25.0  +22.2  84  +32  +32  очень
душно 
1012.6  993.7  +23.3  +28.9     
12:53 17.06 Ю  14 км    5/2 360 м
[средняя] 
+26.1  +22.8  82  +35  +35  очень
душно 
1013.0  994.1         
13:53 17.06 Ю  16 км    5/2 360 м
[средняя] 
+27.8  +22.2  72  +36  +37  очень
душно 
1013.6  994.7         
14:53 17.06 Ю  16 км    2/2 420 м
[средняя] 
+29.4  +22.2  65  +38  +40  очень
душно 
1013.6  994.7         
15:53 17.06 Ю  16 км    2/2 600 м
[средняя] 
+30.6  +22.2  61  +40  +44  очень
душно 
1013.4  994.7         
16:53 17.06 нст  16 км    2/2 750 м  +31.7  +22.8  59  +41  +52  опасность
перегрева 
1013.4  994.7         
17:53 17.06 Ю  16 км    ясно  +33.3  +22.8  54  +43  +50  опасность
перегрева 
1013.2  994.4  +25.0  +33.3     
18:53 17.06 Ю  16 км    ясно  +33.9  +21.7  49  +42  +53  опасность
перегрева 
1012.9  994.1         
19:53 17.06 Ю  16 км    ясно  +35.0  +21.1  44  +42  +53  опасность
перегрева 
1012.6  993.7         
20:53 17.06 Ю  16 км    ясно  +36.1  +20.6  41  +43  +55  опасность
перегрева 
1011.8  993.1         
21:53 17.06 Ю  5
{8} 
16 км    ясно  +36.1  +20.6  41  +43  +48  опасность
перегрева 
1011.2  992.4         
22:53 17.06 Ю  16 км    ясно  +36.1  +20.0  39  +42  +45  опасность
перегрева 
1010.3  991.8         
23:53 17.06 Ю  16 км    2/0 7500 м
[верхняя] 
+35.0  +19.4  40  +40  +41  очень
душно 
1009.6  990.8  +32.8  +36.7     
00:53 18.06 Ю  16 км    2/0 7500 м
[верхняя] 
+33.9  +20.0  44  +40  +41  очень
душно 
1009.7  991.1         
01:53 18.06 Ю  16 км    2/0 7500 м
[верхняя] 
+31.7  +20.6  52  +39  +39  очень
душно 
1010.2  991.4         
02:53 18.06 ЮВ  16 км    2/0 7500 м
[верхняя] 
+30.0  +20.6  57  +37  +37  очень
душно 
1011.2  992.4         
03:53 18.06 В  16 км    ясно  +28.9  +21.1  63  +36  +36  очень
душно 
1012.0  993.1         
04:53 18.06 ЮВ  16 км    ясно  +28.9  +22.2  67  +38  +38  очень
душно 
1012.4  993.7         
05:53 18.06 ЮВ  16 км    ясно  +27.8  +22.8  74  +37  +37  очень
душно 
1012.5  993.7  +27.8  +35.0     

 

Местоположение метеостанции Dallas / Fort Worth International Airport: широта 32.8974 долгота -97.0220 высота над уровнем моря 165 м.

В архиве по умолчанию представлена погода в Далласе за последние 1-2 суток. Обновление информации о фактической погоде в базе происходит ежечасно! Архивные данные за месяц целиком и за предыдущие месяцы Вы можете получить, выбрав интересующий диапазон дат из раскрывающегося списка и нажав кнопку "Ввод!".

Внимание! Архив погоды МЕТАР в базе сайта в настоящее время начинается c 1 января 2013 г. Нет смысла пытаться выбрать более раннюю дату.

Внимание! Время в таблицах - всемирное. Для получения местного времени необходимо прибавить поправку, которая в Далласе равна -6 ч.

Ветер - указаны скорость ветра в м/с и направление, откуда дует ветер: С - северный, СВ - северо-восточный, В - восточный, ЮВ - юго-восточный, Ю - южный, ЮЗ - юго-западный, З - западный, СЗ - северо-западный.
Видимость - горизонтальная дальность видимости в метрах или километрах. При видимости от 1 до 10 км при отсутствии осадков обычно наблюдается дымка, при ухудшении видимости до 1 км и менее - туман. В сухую погоду видимость может ухудшаться дымом, пылью или мглою.
Атмосферные явления - указаны явления, наблюдавшиеся в указанный момент времени.
Облачность - указаны через наклонную черту верхняя и нижняя облачность в баллах и высота нижней границы облаков в метрах. Внимание: облачность, как и прочие метеорологические величины в США измеряются автоматическими метеостанциями. Указанные значения в баллах носят условный характер и показывают процент времени, в течение которого, в среднем, лазерный луч высотомера отражался от облаков обратно.
T - Температура воздуха - температура, измеренная на высоте 2 м над землей.
Td - Температура точки росы - температура, при понижении до которой содержащийся в воздухе водяной пар достигнет насыщения.
f - Относительная влажность воздуха - влажноcть воздуха, измеренная на высоте 2 м над землей.
Te - Эффективная температура - температура, которую ощущает одетый по сезону человек в тени. Характеристика душности погоды. При расчете учитывается влияние влажности воздуха и скорости ветра на теплоощущения человека.
Tes - Эффективная температура на солнце - температура, которую ощущает человек, с поправкой на солнечный нагрев. Характеристика знойности погоды. Зависит от высоты солнца над горизонтом, облачности и скорости ветра. Ночью, в пасмурную погоду, а также при ветре 12 м/с и более поправка равна нулю.
P - Атмосферное давление - приведенное к уровню моря атмосферное давление.
Po - Атмосферное давление - измеренное на уровне метеостанции атмосферное давление.
Tmin - Минимальная температура - минимум температуры воздуха на высоте 2 м над землей.
Tmax - Максимальная температура - максимум температуры воздуха на высоте 2 м над землей.
R - Количество осадков - Количество выпавших осадков за 3 или 6 часов, мм.
SD - Снежный покров - Высота снежного покрова, см.